User: anonymous   Login
Location: Caltech
(34.1382°N, 118.1253°W)
Time: 18:16:58
(UTC-07:00)
Language:

Meteor 2-4 Rocket - Orbit

View from above orbital plane
View from above orbital plane
View from above satellite
View from above satellite

Ground track
Ground track

The orbit data is extracted from the following two-line orbital elements,

1 11289U 79021B   15115.16586480  .00000113  00000-0  54183-4 0  9991
2 11289 081.2484 209.0032 0074656 298.4733 060.8932 14.11495959860224
Epoch (UTC): 25 April 2015 03:58:50
Eccentricity: 0.0074656
inclination: 81.2484°
perigee height: 800 km
apogee height: 908 km
right ascension of ascending node: 209.0032°
argument of perigee: 298.4733°
revolutions per day: 14.11495959
mean anomaly at epoch: 60.8932°
orbit number at epoch: 86022

The dashed part of the orbit path shows where the satellite is in the earth's shadow,  

DLR